Time,TemperatureF,DewpointF,PressureIn,WindDirection,WindDirectionDegrees,WindSpeedMPH,WindSpeedGustMPH,Humidity,HourlyPrecipIn,Conditions,Clouds,dailyrainin,SoftwareType,DateUTC
2013-06-29 00:11:00,79.2,70.0,29.88,SSW,197,6.0,10.0,74,0.00,,,0.00,weatherlink.com 1.10,2013-06-29 04:11:00,
2013-06-29 00:26:00,78.5,69.0,29.88,South,181,3.0,7.0,73,0.00,,,0.00,weatherlink.com 1.10,2013-06-29 04:26:00,
2013-06-29 00:41:00,78.4,70.0,29.87,SSW,195,7.0,8.0,74,0.00,,,0.00,weatherlink.com 1.10,2013-06-29 04:41:00,
2013-06-29 00:56:00,78.5,70.0,29.86,South,177,3.0,9.0,75,0.00,,,0.00,weatherlink.com 1.10,2013-06-29 04:56:00,
2013-06-29 01:11:00,78.7,70.0,29.86,South,175,3.0,8.0,74,0.00,,,0.00,weatherlink.com 1.10,2013-06-29 05:11:00,
2013-06-29 01:26:00,78.5,70.0,29.85,South,181,6.0,9.0,74,0.00,,,0.00,weatherlink.com 1.10,2013-06-29 05:26:00,
2013-06-29 01:41:00,78.8,69.0,29.85,SSW,196,7.0,9.0,73,0.00,,,0.00,weatherlink.com 1.10,2013-06-29 05:41:00,
2013-06-29 01:56:00,78.8,68.0,29.84,South,190,6.0,12.0,70,0.00,,,0.00,weatherlink.com 1.10,2013-06-29 05:56:00,
2013-06-29 02:11:00,78.9,69.0,29.83,SSW,192,7.0,11.0,71,0.00,,,0.00,weatherlink.com 1.10,2013-06-29 06:11:00,
2013-06-29 02:26:00,78.7,68.0,29.83,SSW,200,6.0,11.0,69,0.00,,,0.00,weatherlink.com 1.10,2013-06-29 06:26:00,
2013-06-29 02:41:00,78.8,68.0,29.84,South,189,6.0,11.0,69,0.00,,,0.00,weatherlink.com 1.10,2013-06-29 06:41:00,
2013-06-29 02:58:00,78.6,67.0,29.84,South,186,5.0,9.0,68,0.00,,,0.00,weatherlink.com 1.10,2013-06-29 06:58:00,
2013-06-29 03:11:00,78.7,67.0,29.84,South,186,8.0,10.0,68,0.00,,,0.00,weatherlink.com 1.10,2013-06-29 07:11:00,
2013-06-29 03:26:00,78.9,69.0,29.84,SSW,206,10.0,12.0,71,0.00,,,0.00,weatherlink.com 1.10,2013-06-29 07:26:00,
2013-06-29 03:41:00,79.5,70.0,29.84,SW,227,12.0,13.0,73,0.00,,,0.00,weatherlink.com 1.10,2013-06-29 07:41:00,
2013-06-29 03:56:00,79.5,71.0,29.84,SSW,212,10.0,13.0,75,0.00,,,0.00,weatherlink.com 1.10,2013-06-29 07:56:00,
2013-06-29 04:11:00,79.5,71.0,29.85,SW,219,12.0,14.0,74,0.00,,,0.00,weatherlink.com 1.10,2013-06-29 08:11:00,
2013-06-29 04:26:00,78.9,69.0,29.85,SSW,199,9.0,12.0,72,0.00,,,0.00,weatherlink.com 1.10,2013-06-29 08:26:00,
2013-06-29 04:41:00,78.8,69.0,29.85,SSW,212,7.0,11.0,73,0.00,,,0.00,weatherlink.com 1.10,2013-06-29 08:41:00,
2013-06-29 04:56:00,79.0,69.0,29.85,SW,215,9.0,10.0,71,0.00,,,0.00,weatherlink.com 1.10,2013-06-29 08:56:00,
2013-06-29 05:11:00,79.1,69.0,29.85,SW,221,9.0,12.0,72,0.00,,,0.00,weatherlink.com 1.10,2013-06-29 09:11:00,
2013-06-29 05:26:00,79.1,69.0,29.85,SW,226,9.0,13.0,70,0.00,,,0.00,weatherlink.com 1.10,2013-06-29 09:26:00,
2013-06-29 05:41:00,79.0,69.0,29.85,SW,231,11.0,13.0,72,0.00,,,0.00,weatherlink.com 1.10,2013-06-29 09:41:00,
2013-06-29 05:56:00,79.0,70.0,29.86,SW,219,9.0,13.0,73,0.00,,,0.00,weatherlink.com 1.10,2013-06-29 09:56:00,
2013-06-29 06:11:00,78.8,69.0,29.86,SW,217,9.0,11.0,71,0.00,,,0.00,weatherlink.com 1.10,2013-06-29 10:11:00,
2013-06-29 06:26:00,78.6,68.0,29.86,SW,216,11.0,13.0,71,0.00,,,0.00,weatherlink.com 1.10,2013-06-29 10:26:00,
2013-06-29 06:41:00,78.8,68.0,29.86,SSW,207,7.0,12.0,69,0.00,,,0.00,weatherlink.com 1.10,2013-06-29 10:41:00,
2013-06-29 06:56:00,78.7,67.0,29.86,SSW,203,10.0,12.0,68,0.00,,,0.00,weatherlink.com 1.10,2013-06-29 10:56:00,
2013-06-29 07:11:00,78.6,66.0,29.86,SSW,206,8.0,11.0,66,0.00,,,0.00,weatherlink.com 1.10,2013-06-29 11:11:00,
2013-06-29 07:26:00,78.6,66.0,29.86,South,189,9.0,12.0,65,0.00,,,0.00,weatherlink.com 1.10,2013-06-29 11:26:00,
2013-06-29 07:41:00,78.6,68.0,29.87,SSW,201,7.0,11.0,69,0.00,,,0.00,weatherlink.com 1.10,2013-06-29 11:41:00,
2013-06-29 07:56:00,78.8,68.0,29.87,SSW,193,7.0,10.0,69,0.00,,,0.00,weatherlink.com 1.10,2013-06-29 11:56:00,
2013-06-29 08:11:00,78.9,68.0,29.87,South,180,6.0,11.0,70,0.00,,,0.00,weatherlink.com 1.10,2013-06-29 12:11:00,
2013-06-29 08:26:00,78.9,68.0,29.87,SSW,196,9.0,11.0,69,0.00,,,0.00,weatherlink.com 1.10,2013-06-29 12:26:00,
2013-06-29 08:41:00,79.3,68.0,29.86,South,183,4.0,9.0,69,0.00,,,0.00,weatherlink.com 1.10,2013-06-29 12:41:00,
2013-06-29 08:57:00,79.7,70.0,29.87,SSE,164,4.0,11.0,71,0.00,,,0.00,weatherlink.com 1.10,2013-06-29 12:57:00,
2013-06-29 09:12:00,80.2,71.0,29.87,South,183,4.0,8.0,74,0.00,,,0.00,weatherlink.com 1.10,2013-06-29 13:12:00,
2013-06-29 09:27:00,80.8,73.0,29.86,SSW,207,7.0,9.0,76,0.00,,,0.00,weatherlink.com 1.10,2013-06-29 13:27:00,
2013-06-29 09:42:00,81.5,74.0,29.86,SSW,202,9.0,14.0,78,0.00,,,0.00,weatherlink.com 1.10,2013-06-29 13:42:00,
2013-06-29 09:57:00,81.5,74.0,29.87,SW,219,16.0,16.0,78,0.00,,,0.00,weatherlink.com 1.10,2013-06-29 13:57:00,
2013-06-29 10:12:00,81.9,74.0,29.86,SW,215,11.0,14.0,78,0.00,,,0.00,weatherlink.com 1.10,2013-06-29 14:12:00,
2013-06-29 10:27:00,82.3,75.0,29.86,SW,236,15.0,16.0,78,0.00,,,0.00,weatherlink.com 1.10,2013-06-29 14:27:00,
2013-06-29 10:42:00,78.3,70.0,29.88,West,267,10.0,23.0,76,0.00,,,0.00,weatherlink.com 1.10,2013-06-29 14:42:00,
2013-06-29 10:57:00,75.4,66.0,29.88,West,277,18.0,26.0,72,0.03,,,0.03,weatherlink.com 1.10,2013-06-29 14:57:00,
2013-06-29 11:12:00,75.1,63.0,29.88,West,265,13.0,18.0,66,0.11,,,0.11,weatherlink.com 1.10,2013-06-29 15:12:00,
2013-06-29 11:27:00,75.4,65.0,29.88,WSW,257,10.0,13.0,71,0.11,,,0.11,weatherlink.com 1.10,2013-06-29 15:27:00,
2013-06-29 11:42:00,76.7,69.0,29.88,WSW,246,9.0,10.0,77,0.11,,,0.11,weatherlink.com 1.10,2013-06-29 15:42:00,
2013-06-29 11:57:00,76.8,67.0,29.88,West,259,8.0,10.0,72,0.08,,,0.11,weatherlink.com 1.10,2013-06-29 15:57:00,
2013-06-29 12:12:00,77.2,67.0,29.88,WSW,251,8.0,10.0,70,0.00,,,0.11,weatherlink.com 1.10,2013-06-29 16:12:00,
2013-06-29 12:27:00,77.6,69.0,29.88,WSW,253,6.0,10.0,75,0.00,,,0.11,weatherlink.com 1.10,2013-06-29 16:27:00,
2013-06-29 12:42:00,78.4,71.0,29.88,WSW,240,7.0,11.0,77,0.00,,,0.11,weatherlink.com 1.10,2013-06-29 16:42:00,
2013-06-29 12:57:00,78.8,71.0,29.88,West,265,3.0,8.0,76,0.00,,,0.11,weatherlink.com 1.10,2013-06-29 16:57:00,
2013-06-29 13:12:00,78.7,70.0,29.88,South,190,0.0,5.0,75,0.00,,,0.11,weatherlink.com 1.10,2013-06-29 17:12:00,
2013-06-29 13:27:00,79.0,71.0,29.87,WSW,257,0.0,5.0,76,0.00,,,0.11,weatherlink.com 1.10,2013-06-29 17:27:00,
2013-06-29 13:42:00,79.1,70.0,29.85,WSW,253,0.0,3.0,74,0.00,,,0.11,weatherlink.com 1.10,2013-06-29 17:42:00,
2013-06-29 13:57:00,79.4,71.0,29.86,West,266,4.0,7.0,76,0.00,,,0.11,weatherlink.com 1.10,2013-06-29 17:57:00,
2013-06-29 14:12:00,80.0,73.0,29.86,West,273,3.0,8.0,78,0.00,,,0.11,weatherlink.com 1.10,2013-06-29 18:12:00,
2013-06-29 14:27:00,80.7,73.0,29.84,West,269,2.0,9.0,78,0.00,,,0.11,weatherlink.com 1.10,2013-06-29 18:27:00,
2013-06-29 14:42:00,80.9,73.0,29.83,WSW,244,2.0,6.0,76,0.00,,,0.11,weatherlink.com 1.10,2013-06-29 18:42:00,
2013-06-29 14:57:00,81.2,74.0,29.84,SW,219,5.0,6.0,78,0.00,,,0.11,weatherlink.com 1.10,2013-06-29 18:57:00,
2013-06-29 15:12:00,81.5,74.0,29.83,SSW,211,4.0,6.0,78,0.00,,,0.11,weatherlink.com 1.10,2013-06-29 19:12:00,
2013-06-29 15:27:00,82.5,75.0,29.82,SSW,213,9.0,10.0,77,0.00,,,0.11,weatherlink.com 1.10,2013-06-29 19:27:00,
2013-06-29 15:42:00,83.0,75.0,29.82,SSW,210,7.0,11.0,77,0.00,,,0.11,weatherlink.com 1.10,2013-06-29 19:42:00,
2013-06-29 15:57:00,83.4,75.0,29.82,WSW,237,5.0,10.0,75,0.00,,,0.11,weatherlink.com 1.10,2013-06-29 19:57:00,
2013-06-29 16:12:00,83.9,75.0,29.82,WSW,241,8.0,11.0,75,0.00,,,0.11,weatherlink.com 1.10,2013-06-29 20:12:00,
2013-06-29 16:27:00,84.0,75.0,29.81,WSW,245,11.0,13.0,74,0.00,,,0.11,weatherlink.com 1.10,2013-06-29 20:27:00,
2013-06-29 16:42:00,84.0,75.0,29.81,WSW,241,9.0,11.0,74,0.00,,,0.11,weatherlink.com 1.10,2013-06-29 20:42:00,
2013-06-29 16:57:00,79.9,72.0,29.81,WNW,283,0.0,18.0,77,0.00,,,0.11,weatherlink.com 1.10,2013-06-29 20:57:00,
2013-06-29 17:12:00,78.5,68.0,29.82,West,274,6.0,20.0,70,0.02,,,0.13,weatherlink.com 1.10,2013-06-29 21:12:00,
2013-06-29 17:27:00,77.8,65.0,29.81,WNW,286,1.0,4.0,65,0.02,,,0.13,weatherlink.com 1.10,2013-06-29 21:27:00,
2013-06-29 17:42:00,80.0,73.0,29.81,WSW,252,13.0,14.0,78,0.02,,,0.13,weatherlink.com 1.10,2013-06-29 21:42:00,
2013-06-29 17:57:00,82.5,73.0,29.81,WSW,254,10.0,14.0,74,0.02,,,0.13,weatherlink.com 1.10,2013-06-29 21:57:00,
2013-06-29 18:12:00,82.5,73.0,29.80,WSW,251,10.0,12.0,74,0.00,,,0.13,weatherlink.com 1.10,2013-06-29 22:12:00,
2013-06-29 18:27:00,82.3,74.0,29.80,WSW,253,8.0,11.0,77,0.00,,,0.13,weatherlink.com 1.10,2013-06-29 22:27:00,
2013-06-29 18:42:00,83.2,75.0,29.80,WNW,282,7.0,12.0,75,0.00,,,0.13,weatherlink.com 1.10,2013-06-29 22:42:00,
2013-06-29 18:57:00,83.3,74.0,29.81,West,260,8.0,11.0,73,0.00,,,0.13,weatherlink.com 1.10,2013-06-29 22:57:00,
2013-06-29 19:12:00,83.0,74.0,29.81,WSW,254,2.0,11.0,73,0.00,,,0.13,weatherlink.com 1.10,2013-06-29 23:12:00,
2013-06-29 19:27:00,82.3,74.0,29.82,WSW,251,3.0,6.0,75,0.00,,,0.13,weatherlink.com 1.10,2013-06-29 23:27:00,
2013-06-29 19:42:00,82.5,74.0,29.82,SSW,197,7.0,10.0,76,0.00,,,0.13,weatherlink.com 1.10,2013-06-29 23:42:00,
2013-06-29 19:57:00,81.7,74.0,29.82,SSW,209,7.0,12.0,77,0.00,,,0.13,weatherlink.com 1.10,2013-06-29 23:57:00,
2013-06-29 20:12:00,81.1,74.0,29.83,SSW,204,8.0,11.0,78,0.00,,,0.13,weatherlink.com 1.10,2013-06-30 00:12:00,
2013-06-29 20:27:00,80.5,73.0,29.83,SSW,200,8.0,11.0,78,0.00,,,0.13,weatherlink.com 1.10,2013-06-30 00:27:00,
2013-06-29 20:42:00,80.0,73.0,29.84,South,186,8.0,10.0,78,0.00,,,0.13,weatherlink.com 1.10,2013-06-30 00:42:00,
2013-06-29 20:57:00,79.7,72.0,29.84,SSW,195,5.0,11.0,78,0.00,,,0.13,weatherlink.com 1.10,2013-06-30 00:57:00,
2013-06-29 21:12:00,79.3,72.0,29.84,South,183,2.0,7.0,78,0.00,,,0.13,weatherlink.com 1.10,2013-06-30 01:12:00,
2013-06-29 21:27:00,79.2,72.0,29.84,South,180,4.0,9.0,78,0.00,,,0.13,weatherlink.com 1.10,2013-06-30 01:27:00,
2013-06-29 21:42:00,79.1,71.0,29.84,SSE,167,4.0,11.0,76,0.00,,,0.13,weatherlink.com 1.10,2013-06-30 01:42:00,
2013-06-29 21:57:00,79.0,71.0,29.84,SSE,155,6.0,11.0,77,0.00,,,0.13,weatherlink.com 1.10,2013-06-30 01:57:00,
2013-06-29 22:12:00,78.9,70.0,29.84,SSW,198,5.0,8.0,75,0.00,,,0.13,weatherlink.com 1.10,2013-06-30 02:12:00,
2013-06-29 22:27:00,78.8,71.0,29.85,SSW,197,8.0,10.0,76,0.00,,,0.13,weatherlink.com 1.10,2013-06-30 02:27:00,
2013-06-29 22:42:00,78.7,71.0,29.86,South,187,3.0,11.0,76,0.00,,,0.13,weatherlink.com 1.10,2013-06-30 02:42:00,
2013-06-29 22:57:00,78.8,70.0,29.86,South,181,3.0,10.0,75,0.00,,,0.13,weatherlink.com 1.10,2013-06-30 02:57:00,
2013-06-29 23:12:00,78.8,71.0,29.86,South,188,5.0,10.0,78,0.00,,,0.13,weatherlink.com 1.10,2013-06-30 03:12:00,
2013-06-29 23:27:00,78.6,71.0,29.86,South,186,4.0,10.0,77,0.00,,,0.13,weatherlink.com 1.10,2013-06-30 03:27:00,
2013-06-29 23:42:00,78.5,70.0,29.86,South,187,5.0,8.0,76,0.00,,,0.13,weatherlink.com 1.10,2013-06-30 03:42:00,
2013-06-29 23:57:00,78.3,69.0,29.86,South,183,5.0,12.0,73,0.00,,,0.13,weatherlink.com 1.10,2013-06-30 03:57:00,